Showing default

SHERPA-FX2/TAGSAT-2, 48958

Orbit data source: Space-Track

SHERPA-FX2/TAGSAT-2, 48958 is a payload satellite owned by Spaceflight Ind (US) in SSO that was launched on Wed, 30 Jun 2021 UTC via an FALCON 9 launch vehicle from the Air Force Eastern Test Range (AFETR). Payload-class satellites include a variety of spacecraft equipped with specific instruments for various scientific and technological missions. These include communications satellites like Starlink; space stations such as the ISS; scientific satellites like the Hubble; Earth observation satellites from companies like Planet Labs, Umbra, and HawkEye 360; GPS; miniature CubeSats for education and research; and military/defense satellites.

Loading next visibility...
Identifier
48958, 2021-059CH
Orbit
SSO
Country
Flag of USUS
Related business
Manufacturer
Spaceflight Ind
Mission
Operational Commercial Technology
Bus & Motor
ESPA/SHERPA-FX, Unknown motor
Mass
295 kg wet, 128 kg dry
Launch date (UTC)
2021-06-30 (5 years ago)
Launch vehicle
FALCON 9
Launch site
Air Force Eastern Test Range (AFETR)
Object type
Payload
Rocket body
Debris
Shape & HBR
Cyl, 0.4 m
Radar Cross Section
0.503 m², Medium (>0.1 m² and < 1m²)

Expand to show TLE details & history
Last TLE update: 5 hours ago

TLE from 5 hours ago
0 SHERPA-FX2/TAGSAT-2
1 48958U 21059CH  26095.26123803  .00026544  00000-0  42000-3 0  9998
2 48958  97.6894 283.8826 0006096 236.8159 123.2509 15.53412143266095
Epoch: 2026-04-05T06:16Z
TLE epoch observation values (Epoch: 2026-04-05T06:16:10.965Z)
Latitude
-0.00006°
Longitude
-3.73228°
Altitude
412.169 km
Speed
7.662 km/s
True Right ascension
18h 55m 31s
True Declination
0° 00' 00"
Sunlit
Object was in daylight at epoch
Visualization orbit readout
Latitude
Unknown
Longitude
Unknown
Altitude
Unknown
Speed
Unknown
Apparent Right ascension
Unknown
Apparent Declination
Unknown
Sunlit
N/A
Visualization observer readout
Local Sidereal Time
17:00:52
Azimuth
Unknown
Elevation
Unknown
Doppler factor
Unknown
Orbital elements
Apogee altitude
407.84 km
Perigee altitude
399.572 km
Semi-major axis
6,781.843 km
Eccentricity
0.00061
Inclination
97.6894°
RAAN
283.8826°
Arg. of periapsis
236.8159°
True anomaly
123.30929°
Mean anomaly
123.2509°
Eccentric anomaly
123.2801°
Mean motion
3.88617 °/min
Orbital period
92.64 mins
BSTAR
0.00042
Loading maneuver chart data...
Computing Atmospheric mass density...

Documentation

Showing up to 5 results
|